Tracking 31027 objects as of 19-Jul-2025
HD Live streaming from Space Station
objects crossing your sky now

GALAXY 32

Track GALAXY 32 now!
GALAXY 32 is classified as:


NORAD ID: 54244
Int'l Code: 2022-153B
Perigee: 35,788.0 km
Apogee: 35,799.6 km
Inclination: 0.0 °
Period: 1,436.1 minutes
Semi major axis: 42164 km
RCS: Unknown
Launch date: November 12, 2022
Source: United States (US)
Launch site: AIR FORCE EASTERN TEST RANGE (AFETR)
Your satellite tracking list
IRIDIUM 134
Track 1 satellite(s)




NASA's NSSDC Master Catalog

Two Line Element Set (TLE):
1 54244U 22153B   25199.53871811 -.00000168  00000-0  00000-0 0  9998
2 54244   0.0118  42.9978 0001377  12.9459 343.5786  1.00271503  9798
Source of the keplerian elements: AFSPC